Location: Banksville Park
(38.5557°N, 75.1182°W)
Time: 03:30:50
(UTC+00:00)

Envisat - Pass Details

Date: 28 November 2020
Orbit: 764 x 766 km, 98.1° (Epoch: 16 January)

Event Time Altitude Azimuth Distance (km) Brightness Sun altitude
Rises 10:32:08 0° 18° (NNE) 3,240 6.3 -16.3°
Reaches altitude 10° 10:34:30 10° 23° (NNE) 2,309 5.6 -15.8°
Maximum altitude 10:39:28 53° 100° (E) 938 3.9 -14.9°
Drops below altitude 10° 10:44:24 10° 177° (S) 2,293 5.7 -13.9°
Sets 10:46:45 0° 182° (S) 3,214 6.4 -13.5°
